[[{"header":{"parameterUnit":"m.s-1","parameterCategory":1,"la1":30.2991,"la2":30.254,"lo1":-89.0895,"lo2":-89.0444,"dy":0.0017,"dx":0.0017,"nx":28,"ny":28,"refTime":"2025-11-06T09:00:00:Z","depth":0,"parameterNumber":2,"parameterNumberName":"U-component_of_WINDS"},"data":[0,0,0,0,0,0,0,0,0,0,0,0,0,0,0,0,0,0,0,0,0,0,0,0,0,0,0,0,0,0,0,0,0,0,0,0,0,0,0,0,0,0,0,0,0,0,0,0,0,0,0,0,0,0,0,0,0,0,-2.0274,-2.0274,0,-2.0257,-2.0257,-2.0257,-2.0228,-2.0228,-2.0227,-2.0227,-2.0208,-2.0208,-2.0208,0,0,0,0,0,0,0,0,0,0,0,0,0,-2.0281,-2.0281,-2.0274,-2.0274,-2.0273,-2.0257,-2.0257,-2.0257,-2.0228,-2.0228,-2.0227,-2.0226,-2.0208,-2.0208,-2.0208,0,0,0,0,0,0,0,0,0,0,0,0,0,-2.0273,-2.0281,-2.0274,-2.0257,-2.0256,-2.0257,-2.0257,-2.0257,-2.0229,-2.0228,-2.0227,-2.0226,-2.0208,-2.0208,-2.0208,-2.0224,0,0,-2.0209,-2.0209,0,0,0,0,0,0,0,0,-2.0273,-2.0272,-2.026,-2.0258,-2.0257,-2.0244,-2.0253,-2.0246,-2.0229,-2.0239,-2.0227,-2.0226,-2.0221,-2.022,-2.0218,-2.0223,-2.0223,-2.0209,-2.0209,-2.0209,-2.0209,0,0,0,0,0,0,0,-2.0274,-2.0273,-2.0267,-2.026,-2.0258,-2.0251,-2.0249,-2.0251,-2.0234,-2.0238,-2.0236,-2.0234,-2.022,-2.0218,-2.0218,-2.0222,-2.0209,-2.0209,-2.0209,-2.0209,-2.024,-2.0241,0,0,0,0,0,0,-2.0277,-2.0274,-2.0268,-2.0267,-2.0263,-2.0251,-2.0249,-2.0249,-2.0234,-2.0231,-2.0235,-2.0233,-2.0219,-2.0218,-2.0217,-2.0234,-2.0209,-2.0209,-2.0209,-2.0239,-2.024,-2.0241,0,0,0,0,0,0,-2.0277,-2.0277,-2.0268,-2.027,-2.0268,-2.0252,-2.0252,-2.0249,-2.0247,-2.0232,-2.0229,-2.0237,-2.0218,-2.0217,-2.0223,-2.0233,-2.0209,-2.0209,-2.0238,-2.024,-2.0241,-2.0269,0,0,0,0,0,0,-2.0278,-2.0277,-2.0283,-2.027,-2.0268,-2.0274,-2.0253,-2.0249,-2.0248,-2.0245,-2.0233,-2.023,-2.0217,-2.0223,-2.0223,-2.0233,-2.0209,-2.0237,-2.0239,-2.0241,-2.0267,-2.0271,-2.0275,0,0,0,0,0,-2.0278,-2.0291,-2.0283,-2.0282,-2.0275,-2.0275,-2.0274,-2.0259,-2.0249,-2.0254,-2.0245,-2.023,-2.0233,-2.0224,-2.0223,-2.0233,-2.0237,-2.0239,-2.024,-2.0265,-2.027,-2.0275,0,0,0,0,0,0,-2.0304,-2.0289,-2.028,-2.0289,-2.0284,-2.027,-2.0277,-2.0265,-2.0262,-2.026,-2.0242,-2.0239,-2.0248,-2.0241,-2.0232,-2.0248,-2.0233,-2.0234,-2.0252,-2.0256,-2.026,-2.026,-2.0209,0,0,0,0,0,-2.0311,-2.0313,-2.0299,-2.0309,-2.0307,-2.0293,-2.0292,-2.0282,-2.0275,-2.0272,-2.0263,-2.0257,-2.0257,-2.0256,-2.0255,-2.0267,-2.0264,-2.0274,-2.0278,-2.0281,-2.0282,-2.0288,-2.0292,-2.0248,-2.0248,-2.0248,0,0,-2.0325,-2.0317,-2.0319,-2.0314,-2.0308,-2.0311,-2.029,-2.0293,-2.0295,-2.0273,-2.0277,-2.0271,-2.0263,-2.0272,-2.0276,-2.0267,-2.0294,-2.0283,-2.0286,-2.0285,-2.029,-2.0295,-2.0298,-2.0249,-2.0249,-2.0248,0,0,-2.0351,-2.0346,-2.0353,-2.0349,-2.0341,-2.0332,-2.0334,-2.0323,-2.0318,-2.0323,-2.0306,-2.0308,-2.0307,-2.0303,-2.03,-2.0327,-2.0314,-2.0328,-2.0346,-2.0352,-2.0356,-2.0359,-2.0368,-2.0371,-2.0329,-2.0329,-2.0329,0,-2.0369,-2.0372,-2.0358,-2.0362,-2.0361,-2.0342,-2.035,-2.0346,-2.0338,-2.0337,-2.0329,-2.0328,-2.0322,-2.0329,-2.0336,-2.0335,-2.0336,-2.0328,-2.0357,-2.0359,-2.0362,-2.037,-2.0374,-2.0331,-2.0331,-2.0331,-2.033,0,-2.0395,-2.0397,-2.0404,-2.0397,-2.0397,-2.0402,-2.039,-2.0391,-2.0381,-2.0373,-2.0379,-2.0371,-2.0368,-2.0369,-2.036,-2.0376,-2.0371,-2.036,-2.0343,-2.0368,-2.0376,-2.0379,-2.0333,-2.0333,-2.0332,-2.0332,0,0,-2.0434,-2.0422,-2.0424,-2.0422,-2.0413,-2.0414,-2.042,-2.0418,-2.0419,-2.0415,-2.0419,-2.042,-2.041,-2.0407,-2.0397,-2.0403,-2.0424,-2.0391,-2.039,-2.0396,-2.0441,-2.0449,-2.0453,-2.0417,-2.0417,-2.0418,-2.0442,0,-2.0458,-2.0466,-2.0454,-2.0465,-2.0467,-2.0451,-2.0456,-2.0451,-2.0445,-2.0445,-2.0438,-2.0438,-2.0426,-2.0424,-2.0429,-2.0421,-2.0433,-2.0419,-2.0419,-2.0419,-2.042,-2.0457,-2.0464,-2.0487,-2.0445,-2.0445,-2.0445,0,-2.0485,-2.0483,-2.0494,-2.0486,-2.0487,-2.0491,-2.0488,-2.049,-2.0485,-2.0479,-2.0478,-2.0466,-2.0471,-2.0457,-2.0463,-2.0454,-2.0454,-2.045,-2.0451,-2.0449,-2.0432,-2.0454,-2.0494,-2.0497,-2.045,-2.045,-2.0449,0,-2.0512,-2.0512,-2.0519,-2.0517,-2.0508,-2.0512,-2.0508,-2.0502,-2.0502,-2.05,-2.05,-2.0499,-2.0497,-2.0497,-2.0486,-2.0476,-2.0494,-2.0478,-2.0489,-2.0489,-2.0491,-2.0491,-2.053,-2.0494,-2.0494,-2.0494,-2.0494,0,-2.0538,-2.0545,-2.0531,-2.0535,-2.0543,-2.0531,-2.0539,-2.0533,-2.0529,-2.0532,-2.0518,-2.0521,-2.0507,-2.0509,-2.05,-2.0507,-2.0507,-2.0502,-2.05,-2.0502,-2.0503,-2.0501,-2.0498,-2.0495,-2.0495,-2.0494,-2.0494,0,-2.0568,-2.0559,-2.0565,-2.0557,-2.0555,-2.0561,-2.0554,-2.0557,-2.0551,-2.0554,-2.0554,-2.0544,-2.0545,-2.0535,-2.0534,-2.0528,-2.0538,-2.0534,-2.054,-2.0538,-2.0548,-2.0547,-2.0586,-2.059,-2.0553,-2.0553,-2.0554,0,-2.0584,-2.0589,-2.0582,-2.0583,-2.058,-2.0582,-2.0582,-2.0571,-2.0572,-2.0568,-2.0572,-2.0572,-2.0571,-2.0574,-2.0566,-2.0566,-2.056,-2.0574,-2.056,-2.0563,-2.0559,-2.0558,-2.0558,-2.0576,-2.0577,-2.0577,-2.0578,0,-2.0614,-2.061,-2.061,-2.061,-2.061,-2.0609,-2.0607,-2.0609,-2.0597,-2.0598,-2.06,-2.06,-2.06,-2.06,-2.0598,-2.0594,-2.0584,-2.0583,-2.0585,-2.0587,-2.059,-2.0587,-2.0546,-2.0581,-2.0581,-2.058,-2.058,-2.058,-2.0636,-2.064,-2.0636,-2.0638,-2.0635,-2.0634,-2.0637,-2.0632,-2.0633,-2.0632,-2.0626,-2.0629,-2.0625,-2.0621,-2.0619,-2.0621,-2.0614,-2.0618,-2.0618,-2.0619,-2.062,-2.0591,-2.0621,-2.0621,-2.0621,-2.0621,-2.062,0,-2.0664,-2.0661,-2.0663,-2.0661,-2.0663,-2.0654,-2.0652,-2.0653,-2.0656,-2.0654,-2.0654,-2.0656,-2.0657,-2.065,-2.065,-2.0653,-2.0648,-2.0653,-2.0652,-2.0651,-2.0627,-2.0624,-2.0657,-2.0657,-2.0657,-2.0657,-2.0657,-2.0657,-2.0679,-2.0685,-2.0681,-2.0687,-2.0684,-2.0686,-2.0686,-2.0685,-2.0683,-2.0686,-2.0687,-2.0683,-2.0679,-2.0679,-2.0679,-2.0677,-2.0677,-2.0684,-2.068,-2.0657,-2.0653,-2.065,-2.0647,-2.0684,-2.0684,-2.0704,-2.0705,-2.0705]},{"header":{"parameterUnit":"m.s-1","parameterCategory":1,"la1":30.2991,"la2":30.254,"lo1":-89.0895,"lo2":-89.0444,"dy":0.0017,"dx":0.0017,"nx":28,"ny":28,"refTime":"2025-11-06T09:00:00:Z","depth":0,"parameterNumber":3,"parameterNumberName":"V-component_of_WINDS"},"data":[0,0,0,0,0,0,0,0,0,0,0,0,0,0,0,0,0,0,0,0,0,0,0,0,0,0,0,0,0,0,0,0,0,0,0,0,0,0,0,0,0,0,0,0,0,0,0,0,0,0,0,0,0,0,0,0,0,0,2.2567,2.2566,0,2.2496,2.2495,2.2494,2.243,2.2429,2.2429,2.2428,2.2348,2.2347,2.2346,0,0,0,0,0,0,0,0,0,0,0,0,0,2.2643,2.2642,2.2567,2.2566,2.2565,2.2496,2.2495,2.2494,2.243,2.2429,2.2428,2.2428,2.2349,2.2347,2.2345,0,0,0,0,0,0,0,0,0,0,0,0,0,2.2595,2.2641,2.2567,2.2525,2.2521,2.2496,2.2495,2.2494,2.243,2.2429,2.2428,2.2427,2.2349,2.2347,2.2345,2.2355,0,0,2.2339,2.2338,0,0,0,0,0,0,0,0,2.2597,2.2592,2.2532,2.2528,2.2523,2.2471,2.2493,2.2447,2.2431,2.2464,2.2428,2.2427,2.239,2.2384,2.2373,2.2351,2.2348,2.2339,2.2337,2.2336,2.2336,0,0,0,0,0,0,0,2.2601,2.2595,2.2539,2.2531,2.2526,2.2509,2.25,2.2484,2.2434,2.2461,2.2457,2.2449,2.2387,2.2375,2.2371,2.2346,2.2339,2.2337,2.2335,2.2335,2.2332,2.2333,0,0,0,0,0,0,2.2611,2.2598,2.2541,2.2536,2.2558,2.2508,2.2499,2.2489,2.2434,2.2425,2.2451,2.2447,2.2379,2.2373,2.2368,2.2377,2.2336,2.2334,2.2333,2.233,2.2332,2.2333,0,0,0,0,0,0,2.2613,2.2607,2.2544,2.2566,2.2557,2.2508,2.2497,2.2488,2.2476,2.2426,2.2416,2.2448,2.2378,2.2371,2.236,2.2373,2.2333,2.2332,2.2329,2.2331,2.2332,2.2394,0,0,0,0,0,0,2.2616,2.2608,2.2612,2.2567,2.2556,2.2538,2.2498,2.2487,2.2474,2.2468,2.2421,2.2412,2.2377,2.2363,2.2358,2.2369,2.233,2.2327,2.233,2.2332,2.2391,2.2398,2.2404,0,0,0,0,0,2.2619,2.263,2.2612,2.2606,2.256,2.2539,2.2532,2.2494,2.2475,2.2478,2.2446,2.2414,2.2373,2.2363,2.2356,2.2367,2.2326,2.2329,2.2332,2.2388,2.2396,2.2404,0,0,0,0,0,0,2.2674,2.2623,2.2603,2.26,2.2575,2.2528,2.253,2.2504,2.2481,2.2477,2.2428,2.2417,2.2412,2.2388,2.2378,2.2375,2.2345,2.2347,2.239,2.2398,2.2405,2.241,2.2328,0,0,0,0,0,2.2687,2.2676,2.2631,2.2633,2.2621,2.2579,2.2568,2.2541,2.2512,2.25,2.2467,2.2439,2.242,2.2408,2.2387,2.2388,2.2377,2.2392,2.2399,2.2405,2.2406,2.2407,2.2413,2.2342,2.2342,2.2342,0,0,2.2711,2.2682,2.2677,2.2643,2.262,2.261,2.257,2.2559,2.255,2.2497,2.2486,2.2462,2.2426,2.2422,2.2418,2.2402,2.2424,2.2408,2.2413,2.2411,2.241,2.2417,2.2423,2.2344,2.2343,2.2343,0,0,2.275,2.2727,2.2727,2.2706,2.2674,2.2646,2.2646,2.2605,2.2587,2.2576,2.2537,2.2526,2.2493,2.2471,2.2455,2.2491,2.2461,2.2486,2.252,2.2521,2.2527,2.2531,2.2545,2.255,2.2488,2.2488,2.2488,0,2.2783,2.2767,2.2729,2.2722,2.2709,2.2665,2.2665,2.2646,2.2607,2.2599,2.2582,2.2544,2.2516,2.2507,2.2517,2.2505,2.2504,2.249,2.2529,2.2534,2.2537,2.255,2.2555,2.2491,2.2491,2.249,2.249,0,2.281,2.28,2.2803,2.2772,2.2758,2.2755,2.2716,2.2707,2.2683,2.2657,2.2647,2.2614,2.2588,2.2584,2.2558,2.2572,2.2563,2.2539,2.2508,2.2548,2.2559,2.2563,2.2496,2.2495,2.2494,2.2493,0,0,2.2878,2.2829,2.2831,2.2817,2.278,2.2771,2.2766,2.2743,2.2737,2.2713,2.2707,2.2684,2.2663,2.2645,2.2617,2.2618,2.265,2.2594,2.2592,2.2605,2.2665,2.2683,2.2689,2.2631,2.2632,2.2633,2.2668,0,2.2911,2.2901,2.2869,2.2868,2.2859,2.2819,2.2815,2.2792,2.2769,2.2756,2.2729,2.2714,2.2687,2.2676,2.2676,2.2647,2.2662,2.2644,2.2624,2.2624,2.2634,2.2694,2.2713,2.2747,2.2672,2.2673,2.2673,0,2.2946,2.2929,2.2928,2.2895,2.289,2.2887,2.2865,2.2854,2.2827,2.281,2.2794,2.2764,2.2756,2.273,2.2719,2.2708,2.2699,2.2684,2.2684,2.2679,2.265,2.2691,2.2757,2.2763,2.2679,2.2679,2.2678,0,2.2997,2.2973,2.297,2.2959,2.292,2.2919,2.2903,2.2875,2.2865,2.2845,2.2838,2.2817,2.2806,2.279,2.2756,2.274,2.275,2.2719,2.2735,2.2736,2.2736,2.2736,2.2802,2.2732,2.2732,2.2732,2.2732,0,2.3036,2.3037,2.2993,2.2991,2.2991,2.2955,2.2957,2.2936,2.2913,2.2906,2.287,2.2864,2.282,2.2809,2.2782,2.2778,2.2773,2.2758,2.2751,2.2761,2.2763,2.2753,2.2749,2.2733,2.2733,2.2733,2.2733,0,2.3091,2.3061,2.3056,2.3021,2.3012,2.3015,2.2984,2.2981,2.2958,2.295,2.2945,2.2908,2.2894,2.2859,2.2834,2.2816,2.2819,2.2806,2.2829,2.2824,2.2841,2.284,2.2901,2.2908,2.2835,2.2836,2.2837,0,2.3117,2.3118,2.3084,2.3079,2.3065,2.3055,2.3045,2.3011,2.3002,2.2974,2.2975,2.2958,2.2943,2.2922,2.2892,2.2874,2.286,2.2883,2.2856,2.2867,2.286,2.286,2.286,2.2888,2.2889,2.2889,2.289,0,2.3167,2.3154,2.3142,2.3126,2.3116,2.3102,2.3085,2.3082,2.3043,2.3035,2.3022,2.301,2.2988,2.2972,2.2951,2.2932,2.2905,2.2899,2.2902,2.2911,2.2925,2.2918,2.2844,2.2897,2.2896,2.2896,2.2896,2.2895,2.3208,2.3208,2.3186,2.3174,2.3159,2.3145,2.3141,2.3119,2.3108,2.3089,2.3069,2.3058,2.3034,2.3003,2.2987,2.2978,2.2963,2.2967,2.2968,2.2969,2.2974,2.2928,2.2974,2.2973,2.2973,2.2973,2.2973,0,2.3256,2.3241,2.3232,2.3211,2.3203,2.3182,2.3163,2.3157,2.3149,2.313,2.3117,2.3103,2.3089,2.306,2.3043,2.3041,2.3029,2.3038,2.3037,2.3034,2.2987,2.2987,2.3049,2.3049,2.3049,2.3049,2.3049,2.3049,2.328,2.3279,2.3264,2.3256,2.324,2.3231,2.3222,2.321,2.3195,2.3182,2.3171,2.3153,2.313,2.3112,2.3099,2.309,2.3086,2.3099,2.3087,2.3044,2.3036,2.303,2.3029,2.3099,2.3099,2.3134,2.3134,2.3134]}]]